Kuiper-00108

operational
NORAD ID: 65146 Int'l Des: 2025-171 Owner: KUIP Country: US Constellation: kuiper
LEOCIRCULAR

Über Kuiper-00108

Beschreibung wird geladen...

Live-Position

3D-Globus wird geladen...

Nächste Überflüge

Höhenverlauf

Altitude vs Time

uPlot chart will show altitude changes over time

Zweizeiliger Elementsatz

1 65146U 25171Q 25353.48282816 .00001987 00000-0 28934-3 0 9999
2 65146 51.8993 155.2632 0008177 203.0990 156.9605 14.79985315 20982
Epoch: 19. Dez. 2025 • Age: 11 hours

Aktueller Status

Höhe 637.8 km
Geschwindigkeit 7.54 km/s
Subsatellitenpunkt -17.24°S, 67.9°E
Startdatum 11. Aug. 2025
Alter 0.3 years
Typ internet

Technische Details

Klassifizierung Payload
Masse 490.00 kg
Trockenmasse 490.00 kg
Gesamtmasse 490.00 kg
Länge 1.80 m
Durchmesser 0.70 m
Spannweite 5.00 m
Form Box + 2 pan
Hersteller KUIP
Bus-Typ Kuiper
Phasenstatus In Orbit
Besitzer/Staat KUIP/US

Große Konstellationen

Loading constellations...